Date,TemperatureHighF,TemperatureAvgF,TemperatureLowF,DewpointHighF,DewpointAvgF,DewpointLowF,HumidityHigh,HumidityAvg,HumidityLow,PressureMaxIn,PressureMinIn,WindSpeedMaxMPH,WindSpeedAvgMPH,GustSpeedMaxMPH,PrecipitationSumIn
2013-2-1,35,28,21,17,7,3,60,41,28,30.03,29.54,15,3,23,0.00
2013-2-2,29,24,16,10,5,1,58,45,33,30.21,30.01,12,2,14,0.00
2013-2-3,26,24,21,21,18,10,86,79,50,30.02,29.69,8,1,8,0.00
2013-2-4,31,24,17,19,10,2,87,58,35,29.89,29.67,17,2,21,0.01
2013-2-5,28,24,20,22,11,6,86,58,43,29.98,29.90,8,1,10,0.00
2013-2-6,39,29,23,24,18,4,90,64,37,30.24,29.88,9,1,21,0.02
2013-2-7,29,23,14,9,2,-3,66,42,27,30.49,30.25,9,2,15,0.00
2013-2-8,32,28,17,30,23,9,96,84,49,30.45,29.58,15,4,29,0.00
2013-2-9,20,17,13,17,14,8,90,87,80,30.14,29.54,17,7,30,0.00
2013-2-10,33,18,3,21,11,-2,83,73,43,30.36,30.15,9,1,15,0.01
2013-2-11,40,29,10,40,26,6,98,89,65,30.32,29.57,4,0,11,0.20
2013-2-12,45,38,30,35,28,24,98,69,48,29.83,29.57,13,2,32,0.01
2013-2-13,42,33,23,27,23,19,86,70,46,29.82,29.66,7,1,12,0.00
2013-2-14,43,34,26,27,22,18,83,64,38,29.95,29.67,7,1,12,0.00
2013-2-15,51,37,25,34,29,20,93,73,47,29.96,29.86,12,2,18,0.00
2013-2-16,38,34,28,31,26,16,94,73,51,29.91,29.68,9,2,16,0.03
2013-2-17,30,21,17,18,10,-1,87,63,40,29.68,29.34,25,6,25,0.00
2013-2-18,31,22,14,4,0,-5,51,37,21,30.11,29.62,14,3,26,0.00
2013-2-19,47,35,20,41,23,1,97,62,37,30.12,29.54,13,1,16,0.38
2013-2-20,40,32,26,39,19,10,97,61,39,29.73,29.49,21,2,22,0.00
2013-2-21,32,27,23,14,12,8,65,53,40,30.13,29.72,16,4,22,0.00
2013-2-22,39,31,22,25,19,14,79,63,42,30.35,30.15,11,2,15,0.00
2013-2-23,38,33,27,31,28,22,95,80,67,30.30,29.89,10,1,13,0.01
2013-2-24,36,34,30,36,32,29,97,96,94,29.89,29.66,8,2,18,0.57
2013-2-25,40,34,30,32,29,26,95,83,63,30.20,29.85,5,1,8,0.19
2013-2-26,43,35,26,32,28,24,96,76,53,30.30,30.13,11,2,15,0.00
2013-2-27,41,39,37,39,37,29,97,92,73,30.13,29.52,26,6,31,1.54
2013-2-28,46,37,33,36,34,31,97,89,66,29.60,29.49,5,0,9,0.00